Flag for China Weather past 2 weeks in Langfang, Hebei, China

Now
21 °F

Sunny.


Feels Like: 12 °F
Forecast: 12 / 39 °F
Wind: 8 mph from Northeast

Location: Beijing Airport

Current Time: Jan 31, 2015 at 8:04:34 AM

Latest Report: Jan 31, 2015 at 7:30 AM


Visibility: 10 mi

Pressure: 30.72 "Hg

Humidity: 30%

Dew point: -6 °F

Location of LangfangLocation

Historic Weather in Langfang — Graph

°F

Langfang temperature yesterday

Maximum temperature yesterday: 36 °F (at 3:30 PM)
Minimum temperature yesterday: 16 °F (at 5:30 AM)
Average temperature yesterday: 26 °F

Past Weeks' High & Low Weather Summary

 TemperatureHumidityPressure
High45 °F (Jan 21, 3:00 PM)100% (Jan 26, 1:30 AM)30.72 "Hg (Jan 26, 1:30 AM)
Low12 °F (Jan 22, 7:30 AM)13% (Jan 21, 2:00 PM)30.01 "Hg (Jan 18, 1:00 PM)
Average29 °F43%30.37 "Hg
* Reported Jan 16 7:00 AM — Jan 31 7:00 AM, Langfang, Weather by CustomWeather, © 2014

Note: Actual official high and low records may vary slightly from our data, if they occured in-between our weather recording intervals... More about our weather records

Advertising

Langfang weather history for previous 24 hours

 ConditionsComfort  
Time TempWeatherWind HumidityBarometerVisibility
7:00 AM
Jan 31
19 °FClear.6 mph29%30.72 "Hg10 mi
6:30 AM21 °FClear.6 mph27%30.69 "Hg10 mi
6:00 AM23 °FClear.8 mph28%30.69 "Hg10 mi
5:30 AM23 °FClear.10 mph28%30.69 "Hg10 mi
5:00 AM23 °FClear.10 mph28%30.69 "Hg10 mi
4:30 AM21 °FClear.8 mph30%30.69 "Hg10 mi
4:00 AM23 °FClear.6 mph28%30.69 "Hg10 mi
3:30 AM23 °FClear.10 mph28%30.69 "Hg10 mi
3:00 AM18 °FClear.6 mph38%30.72 "Hg10 mi
2:30 AM18 °FClear.8 mph38%30.72 "Hg10 mi
2:00 AM18 °FClear.6 mph38%30.69 "Hg10 mi
1:30 AM18 °FClear.8 mph38%30.72 "Hg10 mi
1:00 AM18 °FClear.6 mph38%30.69 "Hg10 mi
12:30 AM23 °FPassing clouds.6 mph30%30.69 "HgN/A
12:00 AM21 °FClear.6 mph32%30.69 "Hg10 mi
11:30 PM
Jan 30
25 °FClear.10 mph30%30.69 "Hg10 mi
11:00 PM23 °FClear.8 mph30%30.69 "Hg10 mi
10:30 PM23 °FClear.6 mph30%30.69 "Hg10 mi
10:00 PM23 °FClear.6 mph28%30.69 "Hg10 mi
9:30 PM25 °FPassing clouds.8 mph26%30.69 "HgN/A
9:00 PM30 °FClear.8 mph22%30.69 "Hg10 mi
8:30 PM28 °FPassing clouds.8 mph22%30.66 "HgN/A
8:00 PM30 °FPassing clouds.8 mph20%30.66 "HgN/A
7:30 PM28 °FClear.1 mph24%30.63 "Hg10 mi
7:00 PM27 °FClear.No wind24%30.60 "Hg10 mi
6:30 PM27 °FClear.1 mph24%30.60 "Hg10 mi
6:00 PM30 °FClear.3 mph22%30.57 "Hg10 mi
5:30 PM30 °FClear.1 mph20%30.57 "Hg10 mi
5:00 PM34 °FSunny.1 mph16%30.57 "Hg10 mi
4:30 PM34 °FPassing clouds.3 mph16%30.57 "HgN/A
4:00 PM36 °FPassing clouds.3 mph15%30.54 "HgN/A
3:30 PM36 °FSunny.1 mph15%30.57 "Hg10 mi
3:00 PM34 °FSunny.1 mph16%30.57 "Hg10 mi
2:30 PM34 °FPassing clouds.3 mph16%30.54 "HgN/A
2:00 PM34 °FSunny.3 mph16%30.57 "Hg10 mi
1:30 PM34 °FPassing clouds.6 mph16%30.57 "HgN/A
1:00 PM34 °FPassing clouds.6 mph18%30.60 "HgN/A
12:30 PM32 °FPassing clouds.3 mph19%30.60 "HgN/A
12:00 PM32 °FPassing clouds.6 mph23%30.63 "HgN/A
11:30 AM30 °FPassing clouds.6 mph24%30.63 "HgN/A
11:00 AM28 °FPassing clouds.6 mph26%30.66 "HgN/A
10:30 AM28 °FPassing clouds.8 mph26%30.66 "HgN/A
10:00 AM27 °FSunny.8 mph28%30.63 "Hg10 mi
9:30 AM27 °FSunny.8 mph28%30.63 "Hg10 mi
9:00 AM27 °FPassing clouds.13 mph28%30.63 "HgN/A
8:30 AM23 °FSunny.10 mph33%30.63 "Hg10 mi
8:00 AM19 °FSunny.10 mph38%30.63 "Hg10 mi
Weather by CustomWeather, © 2014

See weather overviewHow to use our weather pages